This demonstration page uses our WeatherBlox Daily Observations layout. Learn more.

Left ArrowRight Arrow

39.51506, -84.39828

Hourly Observations for August 4, 2021

Temp ( °F °C ) Dew Point ( °F °C ) Humidity (%) Winds ( mph kmh ) Pressure ( in mb ) Visibility ( mi km ) Precip ( " mm )
12:15 am 00:15 Clear 62 16.7 58 14.3 86 86 N 5 7 30.07 1018 10 16 N/A
12:35 am 00:35 Clear 62 16.9 56 13.5 81 81 NNE 6 9 30.07 1018 10 16 N/A
12:55 am 00:55 Clear 62 16.6 58 14.3 86 86 NNE 5 7 30.08 1019 10 16 N/A
1:15 am 01:15 Clear 61 16 56 13.5 85 85 NNE 6 9 30.08 1019 10 16 N/A
1:35 am 01:35 Clear 61 15.9 57 13.8 87 87 NNE 6 9 30.07 1018 10 16 N/A
1:55 am 01:55 Clear 61 16 57 13.8 87 87 N 5 7 30.07 1018 10 16 N/A
2:15 am 02:15 Clear 60 15.5 56 13.2 86 86 NNE 5 7 30.08 1018 10 16 N/A
2:35 am 02:35 Clear 60 15.5 55 12.5 82 82 NNE 6 9 30.08 1018 10 16 N/A
2:55 am 02:55 Clear 59 15 58 14.5 97 97 N 3 6 30.08 1019 10 16 N/A
3:15 am 03:15 Clear 59 14.9 55 12.5 86 86 N 7 11 30.08 1019 10 16 N/A
3:35 am 03:35 Clear 59 15 55 12.5 85 85 NNE 6 9 30.08 1019 10 16 N/A
3:55 am 03:55 Clear 59 14.9 55 13 89 89 N 5 7 30.08 1019 10 16 N/A
4:15 am 04:15 Clear 56 13.3 55 12.7 96 96 N 5 7 30.08 1019 10 16 N/A
4:35 am 04:35 Clear 58 14.3 54 12.2 87 87 NNE 6 9 30.08 1019 10 16 N/A
4:55 am 04:55 Clear 58 14.2 55 12.8 91 91 NE 3 6 30.09 1019 10 16 N/A
5:15 am 05:15 Clear 58 14.2 55 13 93 93 NE 3 6 30.09 1019 10 16 N/A
5:35 am 05:35 Clear 57 13.9 54 12.4 91 91 NNE 5 7 30.09 1019 10 16 N/A
5:55 am 05:55 Clear 57 13.9 55 12.5 91 91 NNE 6 9 30.09 1019 10 16 N/A
6:15 am 06:15 Clear 57 13.9 54 12.4 91 91 NNE 6 9 30.09 1019 10 16 N/A
6:35 am 06:35 Clear 56 13.6 56 13.2 97 97 N N/A 30.10 1019 10 16 N/A
6:55 am 06:55 Sunny 57 13.9 55 12.9 94 94 N N/A 30.10 1019 10 16 N/A
7:15 am 07:15 Sunny 56 13.6 55 13 96 96 N N/A 30.11 1020 10 16 N/A
7:35 am 07:35 Sunny 58 14.6 56 13.5 93 93 N N/A 30.12 1020 10 16 N/A
7:55 am 07:55 Sunny 60 15.7 57 14 90 90 NNE 3 6 30.11 1020 10 16 N/A
8:15 am 08:15 Sunny 63 17.1 58 14.4 84 84 NE 6 9 30.11 1020 10 16 N/A
8:35 am 08:35 Sunny 65 18.2 57 14 77 77 NNE 6 9 30.11 1020 10 16 N/A
8:55 am 08:55 Sunny 67 19.4 58 14.5 73 73 NE 6 9 30.12 1020 10 16 N/A
9:15 am 09:15 Sunny 69 20.5 58 14.3 68 68 NE 7 11 30.11 1020 10 16 N/A
9:35 am 09:35 Sunny 70 21.3 57 14 63 63 NE 7 11 30.11 1020 10 16 N/A
9:55 am 09:55 Sunny 72 22.4 58 14.2 60 60 NNE 7 11 30.11 1020 10 16 N/A
10:15 am 10:15 Sunny 74 23.5 58 14.4 57 57 ENE 7 11 30.11 1020 10 16 N/A
10:35 am 10:35 Partly Cloudy 76 24.4 58 14.4 54 54 NE 8 13 30.10 1019 10 16 N/A
11:15 am 11:15 Partly Cloudy 79 26.3 54 12 41 41 ENE 10 17 30.10 1019 10 16 N/A
11:35 am 11:35 Mostly Cloudy 80 26.6 54 12.4 41 41 ENE 10 17 30.10 1019 10 16 N/A
11:55 am 11:55 Mostly Cloudy 80 26.4 54 12 41 41 NE 12 19 30.10 1019 10 16 N/A
12:15 pm 12:15 Mostly Cloudy 80 26.6 53 11.6 39 39 NE 10 17 30.10 1019 10 16 N/A
12:35 pm 12:35 Partly Cloudy 81 27.1 55 12.8 41 41 E 7 11 30.10 1019 10 16 N/A
12:55 pm 12:55 Mostly Cloudy 81 27.2 54 12.4 40 40 ENE 10 17 30.10 1019 10 16 N/A
1:15 pm 13:15 Sunny 82 28 53 11.8 37 37 E 9 15 30.10 1019 10 16 N/A
1:35 pm 13:35 Partly Cloudy 83 28.4 53 11.8 36 36 E 9 15 30.09 1019 10 16 N/A
1:55 pm 13:55 Partly Cloudy 83 28.1 55 12.6 38 38 E 9 15 30.09 1019 10 16 N/A
2:15 pm 14:15 Mostly Cloudy 82 27.7 53 11.6 37 37 E 6 9 30.08 1019 10 16 N/A
2:35 pm 14:35 Mostly Cloudy 81 27.3 53 11.6 38 38 N 6 9 30.08 1019 10 16 N/A
2:55 pm 14:55 Cloudy 80 26.9 55 12.5 41 41 NE 10 17 30.08 1019 10 16 N/A
3:15 pm 15:15 Cloudy 81 27 55 12.8 41 41 NNE 7 11 30.07 1018 10 16 N/A
3:35 pm 15:35 Cloudy 80 26.8 54 12.4 41 41 NE 7 11 30.07 1018 10 16 N/A
3:55 pm 15:55 Cloudy 80 26.6 54 12.3 41 41 ENE 9 15 30.07 1018 10 16 N/A
4:15 pm 16:15 Cloudy 80 26.4 55 12.6 42 42 NE 7 11 30.07 1018 10 16 N/A
4:35 pm 16:35 Cloudy 80 26.7 55 12.5 41 41 NNE 7 11 30.07 1018 10 16 N/A
4:55 pm 16:55 Cloudy 81 27.2 57 13.9 44 44 NNE 6 9 30.06 1018 10 16 N/A
5:15 pm 17:15 Mostly Cloudy 80 26.8 53 11.9 40 40 NNE 7 11 30.06 1018 10 16 N/A
5:35 pm 17:35 Partly Cloudy 81 27.1 54 12.1 39 39 NE 8 13 30.06 1018 10 16 N/A
5:55 pm 17:55 Sunny with Nearby Thunderstorms 82 28 55 12.5 38 38 E 7 11 30.06 1018 10 16 N/A
6:15 pm 18:15 Partly Cloudy 82 27.6 53 11.8 37 37 NE 8 13 30.05 1018 10 16 N/A
6:35 pm 18:35 Sunny 81 27.4 53 11.8 38 38 NE 5 7 30.05 1018 10 16 N/A
6:55 pm 18:55 Sunny 81 27.2 53 11.8 38 38 NE 6 9 30.05 1018 10 16 N/A
7:15 pm 19:15 Partly Cloudy 81 27.1 55 12.7 41 41 ENE 8 13 30.05 1018 10 16 N/A
7:35 pm 19:35 Cloudy 80 26.6 55 12.6 42 42 N 6 9 30.05 1018 10 16 N/A
7:55 pm 19:55 Cloudy 77 25.2 58 14.5 52 52 N 3 6 30.06 1018 10 16 N/A
8:15 pm 20:15 Cloudy 76 24.4 59 14.9 56 56 N 3 6 30.06 1018 10 16 N/A
8:35 pm 20:35 Cloudy 74 23.6 58 14.5 57 57 NNW 5 7 30.07 1018 10 16 N/A
8:55 pm 20:55 Partly Cloudy 73 22.5 59 15 63 63 N 5 7 30.07 1018 10 16 N/A
9:15 pm 21:15 Cloudy 71 21.7 59 15.2 67 67 N 5 7 30.07 1018 10 16 N/A
9:35 pm 21:35 Partly Cloudy 70 20.9 58 14.6 67 67 NNE 6 9 30.08 1019 10 16 N/A
9:55 pm 21:55 Mostly Cloudy 69 20.3 59 14.8 71 71 NNE 5 7 30.09 1019 10 16 N/A
10:15 pm 22:15 Cloudy 68 20 60 15.4 75 75 NNW 3 6 30.10 1019 10 16 N/A
10:35 pm 22:35 Mostly Cloudy 67 19.7 60 15.5 77 77 NNE 5 7 30.11 1019 10 16 N/A
10:55 pm 22:55 Clear 67 19.2 58 14.5 74 74 NE 3 6 30.11 1020 10 16 N/A
11:15 pm 23:15 Partly Cloudy 65 18.5 59 15 80 80 NNW 3 6 30.12 1020 10 16 N/A
11:35 pm 23:35 Mostly Cloudy 65 18.3 60 15.3 83 83 N 3 6 30.12 1020 10 16 N/A
11:55 pm 23:55 Mostly Cloudy 65 18.6 59 14.9 79 79 N 5 7 30.12 1020 10 16 N/A

Powered by AerisWeather